Location: Binningen
(47.7924°N, 8.7261°E)
Time: 19:45:41
(UTC+00:00)

ERBS - Pass Details

Date: 17 May 2021
Orbit: 399 x 417 km, 57.0° (Epoch: 20 June)

Event Time Altitude Azimuth Distance (km) Brightness Sun altitude
Rises 19:48:31 0° 309° (NW) 2,349 8.7 -7.5°
Reaches altitude 10° 19:50:41 10° 317° (NW) 1,488 6.8 -7.8°
Maximum altitude 19:53:49 39° 28° (NNE) 643 3.3 -8.2°
Drops below altitude 10° 19:56:59 10° 99° (E) 1,491 4.5 -8.6°
Enters shadow 19:57:13 - 101° (E) 1,582 4.7 -8.6°
